timestamp,surface_pressure_avg,surface_temp_avg,battery_voltage,lat,long
2018-02-25 00:00:00+00:00,226.3665,0.73,12.73,47.84626,-54.09684
2018-02-25 00:10:00+00:00,227.6031,0.73,12.73,47.84626,-54.09684
2018-02-25 00:20:00+00:00,230.5698,0.71,12.81,47.84626,-54.09684
2018-02-25 00:30:00+00:00,232.8948,0.72,12.81,47.84626,-54.09684
2018-02-25 00:40:00+00:00,233.7847,0.7,12.81,47.84626,-54.09684
2018-02-25 00:50:00+00:00,236.7097,0.7,12.81,47.84626,-54.09684
2018-02-25 01:00:00+00:00,234.0081,0.7,12.73,47.84626,-54.09684
2018-02-25 01:10:00+00:00,233.3081,0.7,12.73,47.84626,-54.09684
2018-02-25 01:20:00+00:00,235.0431,0.7,12.81,47.84626,-54.09684
2018-02-25 01:30:00+00:00,230.5848,0.7,12.81,47.84626,-54.09684
2018-02-25 01:40:00+00:00,224.9247,0.6,12.81,47.84626,-54.09684
2018-02-25 01:50:00+00:00,230.2031,0.5,12.81,47.84626,-54.09684
2018-02-25 02:00:00+00:00,233.2098,0.41,12.73,47.84626,-54.09684
2018-02-25 02:10:00+00:00,231.5047,0.4,12.73,47.84626,-54.09684
2018-02-25 02:20:00+00:00,233.1881,0.4,12.81,47.84626,-54.09684
2018-02-25 02:30:00+00:00,239.6731,0.4,12.81,47.84626,-54.09684
2018-02-25 02:40:00+00:00,242.3713,0.4,12.81,47.84626,-54.09684
2018-02-25 02:50:00+00:00,240.8648,0.4,12.81,47.84626,-54.09684
2018-02-25 03:00:00+00:00,247.3514,0.4,12.73,47.84626,-54.09684
2018-02-25 03:10:00+00:00,257.4114,0.3,12.73,47.84626,-54.09684
2018-02-25 03:20:00+00:00,263.6764,0.3,12.81,47.84626,-54.09684
2018-02-25 03:30:00+00:00,266.5264,0.3,12.81,47.84626,-54.09684
2018-02-25 03:40:00+00:00,275.5764,0.3,12.81,47.84626,-54.09684
2018-02-25 03:50:00+00:00,283.7464,0.28,12.81,47.84626,-54.09684
2018-02-25 04:00:00+00:00,290.0614,0.29,12.73,47.84626,-54.09684
2018-02-25 04:10:00+00:00,297.0264,0.29,12.73,47.84626,-54.09684
2018-02-25 04:20:00+00:00,307.423,0.26,12.81,47.84626,-54.09684
2018-02-25 04:30:00+00:00,311.318,0.3,12.81,47.84626,-54.09684
2018-02-25 04:40:00+00:00,314.0013,0.2,12.81,47.84626,-54.09684
2018-02-25 04:50:00+00:00,318.7463,0.23,12.81,47.84626,-54.09684
2018-02-25 05:00:00+00:00,322.0212,0.23,12.73,47.84626,-54.09684
2018-02-25 05:10:00+00:00,323.6312,0.2,12.65,47.84626,-54.09684
2018-02-25 05:20:00+00:00,332.313,0.19,12.73,47.84626,-54.09684
2018-02-25 05:30:00+00:00,339.9147,0.2,12.73,47.84626,-54.09684
2018-02-25 05:40:00+00:00,341.5729,0.19,12.81,47.84626,-54.09684
2018-02-25 05:50:00+00:00,344.8846,0.15,12.81,47.84626,-54.09684
2018-02-25 06:00:00+00:00,350.1663,0.1,12.73,47.84626,-54.09684
2018-02-25 06:10:00+00:00,351.2979,0.1,12.65,47.84626,-54.09684
2018-02-25 06:20:00+00:00,348.2347,0.1,12.73,47.84626,-54.09684
2018-02-25 06:30:00+00:00,351.9346,0.05,12.73,47.84626,-54.09684
2018-02-25 06:40:00+00:00,360.8362,0.05,12.81,47.84626,-54.09684
2018-02-25 06:50:00+00:00,363.458,0.09,12.81,47.84626,-54.09684
2018-02-25 07:00:00+00:00,358.5046,0.0,12.73,47.84626,-54.09684
2018-02-25 07:10:00+00:00,357.9747,0.0,12.65,47.84626,-54.09684
2018-02-25 07:20:00+00:00,365.013,0.0,12.73,47.84626,-54.09684
2018-02-25 07:30:00+00:00,358.853,0.0,12.73,47.84626,-54.09684
2018-02-25 07:40:00+00:00,352.7413,0.0,12.73,47.84626,-54.09684
2018-02-25 07:50:00+00:00,356.0779,-0.0,12.81,47.84626,-54.09684
2018-02-25 08:00:00+00:00,357.4612,-0.06,12.73,47.84626,-54.09684
2018-02-25 08:10:00+00:00,350.923,-0.1,12.65,47.84626,-54.09684
2018-02-25 08:20:00+00:00,340.2697,-0.02,12.73,47.84626,-54.09684
2018-02-25 08:30:00+00:00,339.8347,0.0,12.73,47.84626,-54.09684
2018-02-25 08:40:00+00:00,335.7897,-0.1,12.73,47.84626,-54.09684
2018-02-25 08:50:00+00:00,327.0179,-0.17,12.73,47.84626,-54.09684
2018-02-25 09:00:00+00:00,321.2214,-0.19,12.65,47.84626,-54.09684
2018-02-25 09:10:00+00:00,320.5297,-0.17,12.65,47.84626,-54.09684
2018-02-25 09:20:00+00:00,317.1379,-0.15,12.73,47.84626,-54.09684
2018-02-25 09:30:00+00:00,308.268,-0.2,12.73,47.84626,-54.09684
2018-02-25 09:40:00+00:00,303.243,-0.2,12.73,47.84626,-54.09684
2018-02-25 09:50:00+00:00,305.1198,-0.13,12.73,47.84626,-54.09684
2018-02-25 10:00:00+00:00,297.4996,-0.11,12.65,47.84626,-54.09684
2018-02-25 10:10:00+00:00,285.2164,-0.2,12.65,47.84626,-54.09684
2018-02-25 10:20:00+00:00,282.2831,-0.2,12.73,47.84626,-54.09684
2018-02-25 10:30:00+00:00,284.718,-0.2,12.73,47.84626,-54.09684
2018-02-25 10:40:00+00:00,277.4597,-0.2,12.73,47.84626,-54.09684
2018-02-25 10:50:00+00:00,271.7231,-0.25,12.81,47.84626,-54.09684
2018-02-25 11:00:00+00:00,274.2914,-0.2,12.73,47.84626,-54.09684
2018-02-25 11:10:00+00:00,272.2248,-0.1,12.73,47.84626,-54.09684
2018-02-25 11:20:00+00:00,266.3715,-0.1,12.89,47.84626,-54.09684
2018-02-25 11:30:00+00:00,264.4164,-0.13,12.97,47.84626,-54.09684
2018-02-25 11:40:00+00:00,263.7181,0.32,13.05,47.84626,-54.09684
2018-02-25 11:50:00+00:00,258.6964,-0.3,13.21,47.84626,-54.09684
2018-02-25 12:00:00+00:00,255.8864,-0.33,13.21,47.84626,-54.09684
2018-02-25 12:10:00+00:00,257.0464,-0.3,13.21,47.84626,-54.09684
2018-02-25 12:20:00+00:00,254.018,-0.4,13.37,47.84626,-54.09684
2018-02-25 12:30:00+00:00,248.2697,-0.3,13.44,47.84626,-54.09684
2018-02-25 12:40:00+00:00,245.3364,-0.3,13.53,47.84626,-54.09684
2018-02-25 12:50:00+00:00,249.4181,-0.3,13.68,47.84626,-54.09684
2018-02-25 13:00:00+00:00,249.2264,-0.3,13.6,47.84626,-54.09684
2018-02-25 13:10:00+00:00,244.3948,-0.3,13.6,47.84626,-54.09684
2018-02-25 13:20:00+00:00,240.8965,-0.3,13.76,47.84626,-54.09684
2018-02-25 13:30:00+00:00,242.0298,-0.3,13.84,47.84626,-54.09684
2018-02-25 13:40:00+00:00,238.7581,-0.3,13.92,47.84626,-54.09684
2018-02-25 13:50:00+00:00,233.3398,-0.3,14.0,47.84626,-54.09684
2018-02-25 14:00:00+00:00,233.8131,-0.3,13.92,47.84626,-54.09684
2018-02-25 14:10:00+00:00,235.0948,-0.3,13.84,47.84626,-54.09684
2018-02-25 14:20:00+00:00,235.3898,-0.3,13.84,47.84626,-54.09684
2018-02-25 14:30:00+00:00,236.8631,-0.3,13.44,47.84626,-54.09684
2018-02-25 14:40:00+00:00,240.6014,-0.3,13.53,47.84626,-54.09684
2018-02-25 14:50:00+00:00,243.9348,-0.2,13.44,47.84626,-54.09684
2018-02-25 15:00:00+00:00,249.7064,-0.2,13.92,47.84626,-54.09684
2018-02-25 15:10:00+00:00,250.9015,-0.19,13.53,47.84626,-54.09684
2018-02-25 15:20:00+00:00,250.7697,-0.1,13.68,47.84626,-54.09684
2018-02-25 15:30:00+00:00,254.2864,-0.11,13.44,47.84626,-54.09684
2018-02-25 15:40:00+00:00,258.9764,-0.1,14.08,47.84626,-54.09684
2018-02-25 15:50:00+00:00,261.1898,-0.1,13.76,47.84626,-54.09684
2018-02-25 16:00:00+00:00,266.1131,-0.1,13.68,47.84626,-54.09684
2018-02-25 16:10:00+00:00,274.4697,-0.1,13.68,47.84626,-54.09684
2018-02-25 16:20:00+00:00,281.9831,-0.1,13.68,47.84626,-54.09684
2018-02-25 16:30:00+00:00,284.1064,0.0,13.44,47.84626,-54.09684
2018-02-25 16:40:00+00:00,292.7464,-0.0,13.68,47.84626,-54.09684
2018-02-25 16:50:00+00:00,302.5081,0.0,13.68,47.84626,-54.09684
2018-02-25 17:00:00+00:00,306.5613,0.05,13.44,47.84626,-54.09684
2018-02-25 17:10:00+00:00,303.2596,0.03,13.44,47.84626,-54.09684
2018-02-25 17:20:00+00:00,306.1931,0.2,13.44,47.84626,-54.09684
2018-02-25 17:30:00+00:00,308.378,0.2,13.44,47.84626,-54.09684
2018-02-25 17:40:00+00:00,312.313,0.2,13.53,47.84626,-54.09684
2018-02-25 17:50:00+00:00,318.7629,0.23,13.44,47.84626,-54.09684
2018-02-25 18:00:00+00:00,326.3847,0.2,13.92,47.84626,-54.09684
2018-02-25 18:10:00+00:00,326.953,0.18,14.08,47.84626,-54.09684
2018-02-25 18:20:00+00:00,325.6646,0.33,13.53,47.84626,-54.09684
2018-02-25 18:30:00+00:00,327.9096,0.38,13.44,47.84626,-54.09684
2018-02-25 18:40:00+00:00,328.2545,0.3,13.53,47.84626,-54.09684
2018-02-25 18:50:00+00:00,331.5262,0.3,14.16,47.84626,-54.09684
2018-02-25 19:00:00+00:00,335.5079,0.34,13.84,47.84626,-54.09684
2018-02-25 19:10:00+00:00,339.0679,0.3,13.68,47.84626,-54.09684
2018-02-25 19:20:00+00:00,339.5731,0.3,13.84,47.84626,-54.09684
2018-02-25 19:30:00+00:00,342.6946,0.3,13.68,47.84626,-54.09684
2018-02-25 19:40:00+00:00,343.8296,0.4,13.6,47.84626,-54.09684
2018-02-25 19:50:00+00:00,343.9313,0.4,13.53,47.84626,-54.09684
2018-02-25 20:00:00+00:00,345.7813,0.4,13.29,47.84626,-54.09684
2018-02-25 20:10:00+00:00,339.528,0.38,13.13,47.84626,-54.09684
2018-02-25 20:20:00+00:00,336.148,0.37,13.21,47.84626,-54.09684
2018-02-25 20:30:00+00:00,334.9715,0.45,13.13,47.84626,-54.09684
2018-02-25 20:40:00+00:00,331.308,0.48,13.13,47.84626,-54.09684
2018-02-25 20:50:00+00:00,326.5496,0.3,13.05,47.84626,-54.09684
2018-02-25 21:00:00+00:00,322.5847,0.22,12.97,47.84626,-54.09684
2018-02-25 21:10:00+00:00,319.208,0.3,12.89,47.84626,-54.09684
2018-02-25 21:20:00+00:00,310.9564,0.34,12.97,47.84626,-54.09684
2018-02-25 21:30:00+00:00,302.0646,0.3,12.97,47.84626,-54.09684
2018-02-25 21:40:00+00:00,299.058,0.3,12.97,47.84626,-54.09684
2018-02-25 21:50:00+00:00,292.1914,0.3,12.97,47.84626,-54.09684
2018-02-25 22:00:00+00:00,284.0413,0.3,12.89,47.84626,-54.09684
2018-02-25 22:10:00+00:00,277.6697,0.35,12.89,47.84626,-54.09684
2018-02-25 22:20:00+00:00,269.9981,0.26,12.97,47.84626,-54.09684
2018-02-25 22:30:00+00:00,264.3564,0.22,12.97,47.84626,-54.09684
2018-02-25 22:40:00+00:00,264.0681,0.29,12.97,47.84626,-54.09684
2018-02-25 22:50:00+00:00,268.8331,0.38,12.97,47.84626,-54.09684
2018-02-25 23:00:00+00:00,267.3031,0.44,12.89,47.84626,-54.09684
2018-02-25 23:10:00+00:00,262.0764,0.48,12.81,47.84626,-54.09684
2018-02-25 23:20:00+00:00,257.8748,0.48,12.89,47.84626,-54.09684
2018-02-25 23:30:00+00:00,254.7181,0.48,12.89,47.84626,-54.09684
2018-02-25 23:40:00+00:00,244.7814,0.4,12.89,47.84626,-54.09684
2018-02-25 23:50:00+00:00,238.088,0.3,12.97,47.84626,-54.09684
